,,,PA_Meas_PMT16A,,PR_Meas_QMR101_102,,RH_Meas_QMH101,,SR_Meas_QMS101,,TA_Meas_QMH101,,GenWind,,GenWind,
date,time,status,PA,status,PR,status,RH,status,SR,status,TA,status,DirAvg,status,SpdAvg,
2011-10-31, 00:00:04,VALID,1000.55,VALID,0,VALID,82.1783,VALID,0,VALID,25.9408,VALID,345,VALID,1.21563,
2011-10-31, 00:01:04,VALID,1000.52,VALID,0,VALID,82.3614,VALID,0,VALID,25.9018,VALID,352,VALID,0.760547,
2011-10-31, 00:02:04,VALID,1000.5,VALID,0,VALID,82.2698,VALID,0,VALID,25.8804,VALID,342,VALID,0.75625,
2011-10-31, 00:03:04,VALID,1000.52,VALID,0,VALID,82.4529,VALID,0,VALID,25.8823,VALID,354,VALID,0.666406,
2011-10-31, 00:04:04,VALID,1000.51,VALID,0,VALID,83.1548,VALID,0,VALID,25.8629,VALID,351,VALID,0.623438,
2011-10-31, 00:05:04,VALID,1000.49,VALID,0,VALID,82.9488,VALID,0,VALID,25.8044,VALID,351,VALID,0.619531,
2011-10-31, 00:06:04,VALID,1000.49,VALID,0,VALID,83.3379,VALID,0,VALID,25.7265,VALID,339,VALID,0.534375,
2011-10-31, 00:07:04,VALID,1000.48,VALID,0,VALID,84.2686,VALID,0,VALID,25.6876,VALID,357,VALID,0.594531,
2011-10-31, 00:08:04,VALID,1000.48,VALID,0,VALID,83.7804,VALID,0.0815089,VALID,25.6486,VALID,340,VALID,0.792969,
2011-10-31, 00:09:04,VALID,1000.48,VALID,0,VALID,84.0779,VALID,0,VALID,25.6116,VALID,340,VALID,0.756641,
2011-10-31, 00:10:04,VALID,1000.5,VALID,0,VALID,84.4059,VALID,0,VALID,25.5513,VALID,348,VALID,0.860156,
2011-10-31, 00:11:04,VALID,1000.5,VALID,0,VALID,84.4136,VALID,0,VALID,25.5123,VALID,339,VALID,0.990234,
2011-10-31, 00:12:04,VALID,1000.48,VALID,0,VALID,84.467,VALID,0,VALID,25.4928,VALID,345,VALID,0.690625,
2011-10-31, 00:13:04,VALID,1000.5,VALID,0,VALID,84.6195,VALID,0,VALID,25.5123,VALID,341,VALID,0.913281,
2011-10-31, 00:14:04,VALID,1000.49,VALID,0,VALID,84.4364,VALID,0,VALID,25.4734,VALID,327,VALID,1.18672,
2011-10-31, 00:15:04,VALID,1000.49,VALID,0,VALID,84.3373,VALID,0,VALID,25.5123,VALID,354,VALID,0.755078,
2011-10-31, 00:16:04,VALID,1000.47,VALID,0,VALID,84.2381,VALID,0.0815089,VALID,25.5104,VALID,344,VALID,0.874609,
2011-10-31, 00:17:04,VALID,1000.46,VALID,0,VALID,84.1771,VALID,0,VALID,25.5298,VALID,328,VALID,0.609375,
2011-10-31, 00:18:04,VALID,1000.46,VALID,0,VALID,84.3144,VALID,0,VALID,25.5513,VALID,324,VALID,0.351953,
2011-10-31, 00:19:04,VALID,1000.45,VALID,0,VALID,84.4364,VALID,0,VALID,25.5318,VALID,324,VALID,0.265625,
2011-10-31, 00:20:04,VALID,1000.48,VALID,0,VALID,84.5433,VALID,0,VALID,25.5123,VALID,331,VALID,0.483203,
2011-10-31, 00:21:04,VALID,1000.43,VALID,0,VALID,84.6958,VALID,0,VALID,25.4928,VALID,331,VALID,0.489844,
2011-10-31, 00:22:04,VALID,1000.47,VALID,0,VALID,84.7721,VALID,0,VALID,25.4734,VALID,342,VALID,0.753125,
2011-10-31, 00:23:04,VALID,1000.48,VALID,0,VALID,85.0239,VALID,0,VALID,25.4344,VALID,345,VALID,0.712891,
2011-10-31, 00:24:04,VALID,1000.47,VALID,0,VALID,85.2527,VALID,0,VALID,25.3955,VALID,342,VALID,0.79375,
2011-10-31, 00:25:04,VALID,1000.47,VALID,0,VALID,86.1301,VALID,0,VALID,25.337,VALID,342,VALID,0.791797,
2011-10-31, 00:26:04,VALID,1000.5,VALID,0,VALID,85.7257,VALID,0,VALID,25.2592,VALID,352,VALID,0.903516,
2011-10-31, 00:27:04,VALID,1000.47,VALID,0,VALID,85.8631,VALID,0,VALID,25.2202,VALID,344,VALID,0.692578,
2011-10-31, 00:28:04,VALID,1000.46,VALID,0,VALID,85.8554,VALID,0.0815089,VALID,25.2397,VALID,347,VALID,0.747656,
2011-10-31, 00:29:04,VALID,1000.48,VALID,0,VALID,86.5725,VALID,0,VALID,25.2202,VALID,347,VALID,0.738281,
2011-10-31, 00:30:04,VALID,1000.46,VALID,0,VALID,85.7791,VALID,0,VALID,25.1813,VALID,345,VALID,1.44844,
2011-10-31, 00:31:04,VALID,1000.48,VALID,0,VALID,85.5274,VALID,0,VALID,25.1988,VALID,338,VALID,0.767578,
2011-10-31, 00:32:04,VALID,1000.47,VALID,0,VALID,85.4511,VALID,0,VALID,25.2592,VALID,349,VALID,0.726563,
2011-10-31, 00:33:04,VALID,1000.44,VALID,0,VALID,85.3595,VALID,0.0815089,VALID,25.2981,VALID,344,VALID,0.755859,
2011-10-31, 00:34:04,VALID,1000.44,VALID,0,VALID,85.0391,VALID,0,VALID,25.3176,VALID,344,VALID,0.914453,
2011-10-31, 00:35:04,VALID,1000.43,VALID,0,VALID,85.1002,VALID,0,VALID,25.2962,VALID,344,VALID,0.790625,
2011-10-31, 00:36:04,VALID,1000.39,VALID,0,VALID,85.1765,VALID,0,VALID,25.337,VALID,346,VALID,0.719922,
2011-10-31, 00:37:04,VALID,1000.37,VALID,0,VALID,85.268,VALID,0.0815089,VALID,25.2981,VALID,347,VALID,0.676172,
2011-10-31, 00:38:04,VALID,1000.37,VALID,0,VALID,85.7639,VALID,0,VALID,25.2981,VALID,335,VALID,0.411719,
2011-10-31, 00:39:04,VALID,1000.34,VALID,0,VALID,85.5884,VALID,0,VALID,25.2397,VALID,343,VALID,0.879687,
2011-10-31, 00:40:04,VALID,1000.34,VALID,0,VALID,86.1148,VALID,0,VALID,25.2397,VALID,344,VALID,0.611719,
2011-10-31, 00:41:04,VALID,1000.33,VALID,0,VALID,85.8783,VALID,0,VALID,25.2221,VALID,352,VALID,0.844922,
2011-10-31, 00:42:04,VALID,1000.33,VALID,0,VALID,85.8478,VALID,0,VALID,25.2007,VALID,343,VALID,0.655469,
2011-10-31, 00:43:04,VALID,1000.3,VALID,0,VALID,85.8096,VALID,0,VALID,25.2007,VALID,342,VALID,0.717578,
2011-10-31, 00:44:04,VALID,1000.29,VALID,0,VALID,85.7868,VALID,0,VALID,25.1813,VALID,343,VALID,0.713672,
2011-10-31, 00:45:04,VALID,1000.29,VALID,0,VALID,85.6723,VALID,0,VALID,25.1813,VALID,344,VALID,0.785156,
2011-10-31, 00:46:04,VALID,1000.29,VALID,0,VALID,85.6571,VALID,0,VALID,25.2007,VALID,346,VALID,0.882422,
2011-10-31, 00:47:04,VALID,1000.29,VALID,0,VALID,85.7791,VALID,0,VALID,25.1794,VALID,348,VALID,0.701563,
2011-10-31, 00:48:04,VALID,1000.26,VALID,0,VALID,85.7944,VALID,0,VALID,25.2027,VALID,328,VALID,0.76875,
2011-10-31, 00:49:04,VALID,1000.23,VALID,0,VALID,86.3284,VALID,0,VALID,25.1618,VALID,330,VALID,0.691406,
2011-10-31, 00:50:04,VALID,1000.23,VALID,0,VALID,86.2521,VALID,0,VALID,25.1229,VALID,341,VALID,0.699219,
2011-10-31, 00:51:04,VALID,1000.22,VALID,0,VALID,86.4047,VALID,0,VALID,25.0839,VALID,341,VALID,0.70625,
2011-10-31, 00:52:04,VALID,1000.21,VALID,0,VALID,86.3971,VALID,0,VALID,25.0644,VALID,341,VALID,0.537891,
2011-10-31, 00:53:04,VALID,1000.22,VALID,0,VALID,86.4123,VALID,0.0815089,VALID,25.045,VALID,337,VALID,0.615625,
2011-10-31, 00:54:04,VALID,1000.21,VALID,0,VALID,86.336,VALID,0,VALID,25.045,VALID,341,VALID,0.572266,
2011-10-31, 00:55:04,VALID,1000.21,VALID,0,VALID,86.2903,VALID,0,VALID,25.0236,VALID,341,VALID,0.545313,
2011-10-31, 00:56:04,VALID,1000.26,VALID,0,VALID,86.3208,VALID,0,VALID,25.0644,VALID,341,VALID,0.580469,
2011-10-31, 00:57:04,VALID,1000.25,VALID,0,VALID,86.8014,VALID,0,VALID,25.0644,VALID,341,VALID,0.573438,
2011-10-31, 00:58:04,VALID,1000.27,VALID,0,VALID,86.4352,VALID,0.0815089,VALID,25.0644,VALID,341,VALID,0.544531,
2011-10-31, 00:59:04,VALID,1000.28,VALID,0,VALID,86.3589,VALID,0,VALID,25.045,VALID,342,VALID,0.542578,
2011-10-31, 01:00:04,VALID,1000.24,VALID,0,VALID,86.5191,VALID,0,VALID,25.045,VALID,342,VALID,0.621875,
2011-10-31, 01:01:04,VALID,1000.26,VALID,0,VALID,86.4428,VALID,0,VALID,25.0644,VALID,343,VALID,0.484766,
2011-10-31, 01:02:04,VALID,1000.23,VALID,0,VALID,86.481,VALID,0.0815089,VALID,25.0644,VALID,343,VALID,0.402344,
2011-10-31, 01:03:04,VALID,1000.23,VALID,0,VALID,86.5954,VALID,0.0815089,VALID,25.045,VALID,343,VALID,0.342969,
2011-10-31, 01:04:04,VALID,1000.2,VALID,0,VALID,86.6183,VALID,0,VALID,25.0041,VALID,343,VALID,0.608203,
2011-10-31, 01:05:04,VALID,1000.18,VALID,0,VALID,86.9311,VALID,0,VALID,24.9866,VALID,343,VALID,0.600391,
2011-10-31, 01:06:04,VALID,1000.14,VALID,0,VALID,87.0455,VALID,0,VALID,24.9282,VALID,343,VALID,0.628516,
2011-10-31, 01:07:04,VALID,1000.11,VALID,0,VALID,87.6635,VALID,0,VALID,24.8873,VALID,342,VALID,0.575781,
2011-10-31, 01:08:04,VALID,1000.13,VALID,0,VALID,88.0144,VALID,0.0815089,VALID,24.8697,VALID,343,VALID,0.673828,
2011-10-31, 01:09:04,VALID,1000.09,VALID,0,VALID,88.0831,VALID,0,VALID,24.8113,VALID,342,VALID,0.631641,
2011-10-31, 01:10:04,VALID,1000.09,VALID,0,VALID,88.4645,VALID,0,VALID,24.7529,VALID,343,VALID,0.747266,
2011-10-31, 01:11:04,VALID,1000.09,VALID,0,VALID,88.6323,VALID,0,VALID,24.6926,VALID,343,VALID,0.642969,
2011-10-31, 01:12:04,VALID,1000.07,VALID,0,VALID,88.5866,VALID,0,VALID,24.6537,VALID,343,VALID,0.667188,
2011-10-31, 01:13:04,VALID,1000.09,VALID,0,VALID,88.2433,VALID,0,VALID,24.6361,VALID,343,VALID,0.444922,
2011-10-31, 01:14:04,VALID,1000.05,VALID,0,VALID,88.1517,VALID,0,VALID,24.6556,VALID,343,VALID,0.3625,
2011-10-31, 01:15:04,VALID,1000.08,VALID,0,VALID,88.167,VALID,0,VALID,24.675,VALID,343,VALID,0.23125,
2011-10-31, 01:16:04,VALID,1000.07,VALID,0,VALID,88.3958,VALID,0,VALID,24.675,VALID,343,VALID,0,
2011-10-31, 01:17:04,VALID,1000.05,VALID,0,VALID,88.3195,VALID,0,VALID,24.6537,VALID,343,VALID,0,
2011-10-31, 01:18:04,VALID,1000.06,VALID,0,VALID,88.434,VALID,0,VALID,24.675,VALID,343,VALID,0.139062,
2011-10-31, 01:19:04,VALID,1000.07,VALID,0,VALID,88.5255,VALID,0,VALID,24.6732,VALID,343,VALID,0.416797,
2011-10-31, 01:20:04,VALID,1000.06,VALID,0,VALID,89.0214,VALID,0,VALID,24.675,VALID,343,VALID,0.438672,
2011-10-31, 01:21:04,VALID,1000.06,VALID,0,VALID,89.0824,VALID,0,VALID,24.6361,VALID,343,VALID,0.411719,
2011-10-31, 01:22:04,VALID,1000.05,VALID,0,VALID,89.502,VALID,0.0815089,VALID,24.5564,VALID,343,VALID,0.467969,
2011-10-31, 01:23:04,VALID,1000.04,VALID,0,VALID,89.9521,VALID,0,VALID,24.498,VALID,343,VALID,0.575,
2011-10-31, 01:24:04,VALID,1000.03,VALID,0,VALID,90.0666,VALID,0,VALID,24.4201,VALID,344,VALID,0.694141,
2011-10-31, 01:25:04,VALID,1000.06,VALID,0,VALID,90.2954,VALID,0,VALID,24.3812,VALID,344,VALID,0.755078,
2011-10-31, 01:26:04,VALID,1000.04,VALID,0,VALID,90.6845,VALID,0,VALID,24.3228,VALID,344,VALID,0.745703,
2011-10-31, 01:27:04,VALID,1000.08,VALID,0,VALID,90.9744,VALID,0.0815089,VALID,24.2839,VALID,344,VALID,0.770703,
2011-10-31, 01:28:04,VALID,1000.04,VALID,0,VALID,91.1193,VALID,0.0815089,VALID,24.2255,VALID,345,VALID,0.642187,
2011-10-31, 01:29:04,VALID,1000.06,VALID,0,VALID,91.2262,VALID,0.0815089,VALID,24.2273,VALID,349,VALID,0.6125,
2011-10-31, 01:30:04,VALID,1000.05,VALID,0,VALID,91.1117,VALID,0.0815089,VALID,24.1671,VALID,349,VALID,0.543359,
2011-10-31, 01:31:04,VALID,1000.05,VALID,0,VALID,91.1804,VALID,0.0815089,VALID,24.1671,VALID,349,VALID,0.53125,
2011-10-31, 01:32:04,VALID,1000.06,VALID,0,VALID,91.2948,VALID,0.0815089,VALID,24.1671,VALID,349,VALID,0.489062,
2011-10-31, 01:33:04,VALID,1000.05,VALID,0,VALID,91.3177,VALID,0.0815089,VALID,24.1689,VALID,349,VALID,0.51875,
2011-10-31, 01:34:04,VALID,1000.02,VALID,0,VALID,91.4703,VALID,0.0815089,VALID,24.1689,VALID,349,VALID,0.465234,
2011-10-31, 01:35:04,VALID,1000.04,VALID,0,VALID,91.5008,VALID,0,VALID,24.1494,VALID,349,VALID,0.648828,
2011-10-31, 01:36:04,VALID,1000.04,VALID,0,VALID,91.3711,VALID,0,VALID,24.1281,VALID,349,VALID,0.576172,
2011-10-31, 01:37:04,VALID,1000.03,VALID,0,VALID,91.4169,VALID,0.0815089,VALID,24.1476,VALID,350,VALID,0.759766,
2011-10-31, 01:38:04,VALID,1000.01,VALID,0,VALID,91.4245,VALID,0.0815089,VALID,24.1884,VALID,350,VALID,0.815625,
2011-10-31, 01:39:04,VALID,1000.01,VALID,0,VALID,91.3253,VALID,0.0815089,VALID,24.1476,VALID,349,VALID,0.698047,
2011-10-31, 01:40:04,VALID,1000.03,VALID,0,VALID,91.1651,VALID,0.0815089,VALID,24.1671,VALID,347,VALID,0.666797,
2011-10-31, 01:41:04,VALID,1000.02,VALID,0,VALID,91.1575,VALID,0,VALID,24.1884,VALID,347,VALID,0.784375,
2011-10-31, 01:42:04,VALID,1000,VALID,0,VALID,90.9668,VALID,0.0815089,VALID,24.2078,VALID,343,VALID,0.830469,
2011-10-31, 01:43:04,VALID,999.942,VALID,0,VALID,90.7379,VALID,0,VALID,24.1865,VALID,343,VALID,0.7625,
2011-10-31, 01:44:04,VALID,999.914,VALID,0,VALID,90.6921,VALID,0,VALID,24.206,VALID,345,VALID,0.544141,
2011-10-31, 01:45:04,VALID,999.896,VALID,0,VALID,91.0125,VALID,0.0815089,VALID,24.206,VALID,345,VALID,0.722656,
2011-10-31, 01:46:04,VALID,999.878,VALID,0,VALID,90.9515,VALID,0.0815089,VALID,24.1865,VALID,345,VALID,0.601953,
2011-10-31, 01:47:04,VALID,999.869,VALID,0,VALID,90.9897,VALID,0,VALID,24.1689,VALID,345,VALID,0.462109,
2011-10-31, 01:48:04,VALID,999.837,VALID,0,VALID,91.0278,VALID,0,VALID,24.1281,VALID,345,VALID,0.679297,
2011-10-31, 01:49:04,VALID,999.832,VALID,0,VALID,90.9744,VALID,0.0815089,VALID,24.1087,VALID,345,VALID,0.644141,
2011-10-31, 01:50:04,VALID,999.817,VALID,0,VALID,90.8981,VALID,0,VALID,24.1281,VALID,345,VALID,0.632422,
2011-10-31, 01:51:04,VALID,999.775,VALID,0,VALID,90.8066,VALID,0,VALID,24.1281,VALID,343,VALID,0.694531,
2011-10-31, 01:52:04,VALID,999.784,VALID,0,VALID,90.7303,VALID,0,VALID,24.1689,VALID,342,VALID,0.664844,
2011-10-31, 01:53:04,VALID,999.771,VALID,0,VALID,90.8523,VALID,0.0815089,VALID,24.1671,VALID,344,VALID,1.02148,
2011-10-31, 01:54:04,VALID,999.75,VALID,0,VALID,90.921,VALID,0,VALID,24.1476,VALID,347,VALID,0.9875,
2011-10-31, 01:55:04,VALID,999.77,VALID,0,VALID,91.0431,VALID,0,VALID,24.1281,VALID,348,VALID,0.880078,
2011-10-31, 01:56:04,VALID,999.79,VALID,0,VALID,91.2185,VALID,0.0815089,VALID,24.1087,VALID,349,VALID,0.707031,
2011-10-31, 01:57:04,VALID,999.772,VALID,0,VALID,91.455,VALID,0,VALID,24.0697,VALID,349,VALID,0.63125,
2011-10-31, 01:58:04,VALID,999.798,VALID,0,VALID,91.7144,VALID,0,VALID,24.0308,VALID,349,VALID,0.726953,
2011-10-31, 01:59:04,VALID,999.806,VALID,0,VALID,91.867,VALID,0.0815089,VALID,24.0326,VALID,353,VALID,0.832422,
2011-10-31, 02:00:04,VALID,999.817,VALID,0,VALID,92.0577,VALID,0.0815089,VALID,23.9919,VALID,353,VALID,0.727344,
2011-10-31, 02:01:04,VALID,999.774,VALID,0,VALID,92.1874,VALID,0,VALID,23.9937,VALID,353,VALID,0.698828,
2011-10-31, 02:02:04,VALID,999.76,VALID,0,VALID,92.3552,VALID,0.0815089,VALID,23.953,VALID,353,VALID,0.672266,
2011-10-31, 02:03:04,VALID,999.743,VALID,0,VALID,92.4697,VALID,0,VALID,23.914,VALID,354,VALID,0.810938,
2011-10-31, 02:04:04,VALID,999.751,VALID,0,VALID,92.5841,VALID,0.0815089,VALID,23.914,VALID,355,VALID,0.795703,
2011-10-31, 02:05:04,VALID,999.73,VALID,0,VALID,92.6528,VALID,0,VALID,23.9353,VALID,355,VALID,0.604688,
2011-10-31, 02:06:04,VALID,999.747,VALID,0,VALID,92.6222,VALID,0.0815089,VALID,23.8946,VALID,355,VALID,0.583984,
2011-10-31, 02:07:04,VALID,999.733,VALID,0,VALID,92.5383,VALID,0,VALID,23.8946,VALID,355,VALID,0.535156,
2011-10-31, 02:08:04,VALID,999.741,VALID,0,VALID,92.5231,VALID,0.0815089,VALID,23.9159,VALID,355,VALID,0.494922,
2011-10-31, 02:09:04,VALID,999.727,VALID,0,VALID,92.462,VALID,0,VALID,23.9159,VALID,355,VALID,0.478125,
2011-10-31, 02:10:04,VALID,999.713,VALID,0,VALID,92.4391,VALID,0,VALID,23.8946,VALID,355,VALID,0.410156,
2011-10-31, 02:11:04,VALID,999.703,VALID,0,VALID,92.4697,VALID,0,VALID,23.914,VALID,355,VALID,0.532031,
2011-10-31, 02:12:04,VALID,999.664,VALID,0,VALID,92.4773,VALID,0,VALID,23.9353,VALID,355,VALID,0.449609,
2011-10-31, 02:13:04,VALID,999.684,VALID,0,VALID,92.4773,VALID,0.0815089,VALID,23.9335,VALID,353,VALID,0.632422,
2011-10-31, 02:14:04,VALID,999.671,VALID,0,VALID,92.1721,VALID,0,VALID,23.953,VALID,352,VALID,0.61875,
2011-10-31, 02:15:04,VALID,999.667,VALID,0,VALID,91.9509,VALID,0.0815089,VALID,24.0308,VALID,347,VALID,0.680859,
2011-10-31, 02:16:04,VALID,999.654,VALID,0,VALID,91.8136,VALID,0,VALID,24.0697,VALID,348,VALID,0.683594,
2011-10-31, 02:17:04,VALID,999.631,VALID,0,VALID,91.5695,VALID,0,VALID,24.1105,VALID,348,VALID,0.464453,
2011-10-31, 02:18:04,VALID,999.642,VALID,0,VALID,91.5771,VALID,0,VALID,24.0697,VALID,348,VALID,0.6875,
2011-10-31, 02:19:04,VALID,999.63,VALID,0,VALID,91.5389,VALID,0,VALID,24.0929,VALID,348,VALID,0.759375,
2011-10-31, 02:20:04,VALID,999.63,VALID,0,VALID,91.7525,VALID,0,VALID,24.0521,VALID,348,VALID,0.534766,
2011-10-31, 02:21:04,VALID,999.639,VALID,0,VALID,91.7983,VALID,0,VALID,24.0345,VALID,348,VALID,0.625781,
2011-10-31, 02:22:04,VALID,999.668,VALID,0,VALID,91.8899,VALID,0,VALID,23.9937,VALID,348,VALID,0.569141,
2011-10-31, 02:23:04,VALID,999.689,VALID,0,VALID,92.1264,VALID,0,VALID,23.9955,VALID,348,VALID,0.543359,
2011-10-31, 02:24:04,VALID,999.703,VALID,0,VALID,92.3247,VALID,0,VALID,23.9566,VALID,348,VALID,0.479688,
2011-10-31, 02:25:04,VALID,999.723,VALID,0,VALID,92.5078,VALID,0,VALID,23.9353,VALID,348,VALID,0.425,
2011-10-31, 02:26:04,VALID,999.714,VALID,0,VALID,92.7138,VALID,0,VALID,23.9371,VALID,348,VALID,0.503906,
2011-10-31, 02:27:04,VALID,999.743,VALID,0,VALID,92.7367,VALID,0,VALID,23.8964,VALID,348,VALID,0.4375,
2011-10-31, 02:28:04,VALID,999.725,VALID,0,VALID,92.8282,VALID,0,VALID,23.8964,VALID,348,VALID,0.530078,
2011-10-31, 02:29:04,VALID,999.7,VALID,0,VALID,92.8053,VALID,0,VALID,23.8769,VALID,348,VALID,0.664844,
2011-10-31, 02:30:04,VALID,999.682,VALID,0,VALID,92.874,VALID,0,VALID,23.8787,VALID,348,VALID,0.605469,
2011-10-31, 02:31:04,VALID,999.708,VALID,0,VALID,92.9808,VALID,0,VALID,23.8982,VALID,348,VALID,0.673047,
2011-10-31, 02:32:04,VALID,999.66,VALID,0,VALID,92.8969,VALID,0,VALID,23.8982,VALID,348,VALID,0.615234,
2011-10-31, 02:33:04,VALID,999.664,VALID,0,VALID,92.9045,VALID,0,VALID,23.8575,VALID,348,VALID,0.539844,
2011-10-31, 02:34:04,VALID,999.664,VALID,0,VALID,93.0418,VALID,0.0815089,VALID,23.8556,VALID,342,VALID,0.497656,
2011-10-31, 02:35:04,VALID,999.666,VALID,0,VALID,93.0571,VALID,0,VALID,23.8556,VALID,339,VALID,0.428906,
2011-10-31, 02:36:04,VALID,999.713,VALID,0,VALID,93.0189,VALID,0,VALID,23.8751,VALID,339,VALID,0.351563,
2011-10-31, 02:37:04,VALID,999.693,VALID,0,VALID,92.9503,VALID,0,VALID,23.8964,VALID,339,VALID,0.305469,
2011-10-31, 02:38:04,VALID,999.72,VALID,0,VALID,92.8664,VALID,0.0815089,VALID,23.8751,VALID,339,VALID,0.320703,
2011-10-31, 02:39:04,VALID,999.713,VALID,0,VALID,92.8892,VALID,0,VALID,23.8964,VALID,339,VALID,0.413281,
2011-10-31, 02:40:04,VALID,999.732,VALID,0,VALID,92.9426,VALID,0.0815089,VALID,23.8733,VALID,339,VALID,0.379297,
2011-10-31, 02:41:04,VALID,999.729,VALID,0,VALID,92.9732,VALID,0,VALID,23.8946,VALID,339,VALID,0.253906,
2011-10-31, 02:42:04,VALID,999.717,VALID,0,VALID,92.9884,VALID,0.0815089,VALID,23.8946,VALID,339,VALID,0.551172,
2011-10-31, 02:43:04,VALID,999.704,VALID,0,VALID,93.0037,VALID,0,VALID,23.8964,VALID,339,VALID,0.631641,
2011-10-31, 02:44:04,VALID,999.692,VALID,0,VALID,93.0723,VALID,0.0815089,VALID,23.8751,VALID,339,VALID,0.528125,
2011-10-31, 02:45:04,VALID,999.685,VALID,0,VALID,93.1944,VALID,0.0815089,VALID,23.8946,VALID,339,VALID,0.678906,
2011-10-31, 02:46:04,VALID,999.684,VALID,0,VALID,93.08,VALID,0.0815089,VALID,23.914,VALID,340,VALID,0.388672,
2011-10-31, 02:47:04,VALID,999.683,VALID,0,VALID,92.9121,VALID,0.0815089,VALID,23.914,VALID,340,VALID,0.488281,
2011-10-31, 02:48:04,VALID,999.682,VALID,0,VALID,92.9884,VALID,0.0815089,VALID,23.8928,VALID,339,VALID,0.570313,
2011-10-31, 02:49:04,VALID,999.681,VALID,0,VALID,92.9121,VALID,0,VALID,23.914,VALID,339,VALID,0.519141,
2011-10-31, 02:50:04,VALID,999.676,VALID,0,VALID,92.9198,VALID,0,VALID,23.9548,VALID,339,VALID,0.233203,
2011-10-31, 02:51:04,VALID,999.685,VALID,0,VALID,92.7901,VALID,0,VALID,23.9742,VALID,339,VALID,0,
2011-10-31, 02:52:04,VALID,999.706,VALID,0,VALID,92.6528,VALID,0,VALID,23.9742,VALID,339,VALID,0.33125,
2011-10-31, 02:53:04,VALID,999.71,VALID,0,VALID,92.5765,VALID,0,VALID,24.0132,VALID,339,VALID,0.122266,
2011-10-31, 02:54:04,VALID,999.73,VALID,0,VALID,92.5154,VALID,0,VALID,24.0132,VALID,339,VALID,0.167578,
2011-10-31, 02:55:04,VALID,999.75,VALID,0,VALID,92.546,VALID,0,VALID,24.0326,VALID,339,VALID,0.413672,
2011-10-31, 02:56:04,VALID,999.752,VALID,0,VALID,92.5917,VALID,0,VALID,24.0326,VALID,339,VALID,0.358203,
2011-10-31, 02:57:04,VALID,999.779,VALID,0,VALID,92.5536,VALID,0,VALID,24.0734,VALID,339,VALID,0.290625,
2011-10-31, 02:58:04,VALID,999.816,VALID,0,VALID,92.6756,VALID,0,VALID,24.0521,VALID,339,VALID,0.330859,
2011-10-31, 02:59:04,VALID,999.811,VALID,0,VALID,92.7519,VALID,0,VALID,24.0326,VALID,339,VALID,0.29375,
2011-10-31, 03:00:04,VALID,999.84,VALID,0,VALID,92.6985,VALID,0,VALID,24.0114,VALID,339,VALID,0.307422,
2011-10-31, 03:01:04,VALID,999.832,VALID,0,VALID,92.7824,VALID,0,VALID,24.0132,VALID,339,VALID,0.126563,
2011-10-31, 03:02:04,VALID,999.863,VALID,0,VALID,92.8053,VALID,0,VALID,24.0132,VALID,339,VALID,0.287109,
2011-10-31, 03:03:04,VALID,999.832,VALID,0,VALID,92.7901,VALID,0,VALID,24.0326,VALID,339,VALID,0.121484,
2011-10-31, 03:04:04,VALID,999.846,VALID,0,VALID,92.7443,VALID,0,VALID,24.0132,VALID,339,VALID,0.191406,
2011-10-31, 03:05:04,VALID,999.832,VALID,0,VALID,92.7062,VALID,0,VALID,24.0132,VALID,339,VALID,0.00273437,
2011-10-31, 03:06:04,VALID,999.83,VALID,0,VALID,92.6451,VALID,0,VALID,23.9937,VALID,339,VALID,0,
2011-10-31, 03:07:04,VALID,999.846,VALID,0,VALID,92.6528,VALID,0,VALID,24.015,VALID,339,VALID,0.0925781,
2011-10-31, 03:08:04,VALID,999.859,VALID,0,VALID,92.7138,VALID,0,VALID,23.9937,VALID,339,VALID,0,
2011-10-31, 03:09:04,VALID,999.876,VALID,0,VALID,92.8053,VALID,0,VALID,23.9724,VALID,339,VALID,0,
2011-10-31, 03:10:04,VALID,999.883,VALID,0,VALID,92.8664,VALID,0,VALID,23.9937,VALID,339,VALID,0,
2011-10-31, 03:11:04,VALID,999.877,VALID,0,VALID,92.9274,VALID,0,VALID,23.9937,VALID,339,VALID,0,
2011-10-31, 03:12:04,VALID,999.883,VALID,0,VALID,92.9121,VALID,0,VALID,23.9955,VALID,339,VALID,0.216406,
2011-10-31, 03:13:04,VALID,999.907,VALID,0,VALID,93.0113,VALID,0,VALID,23.9955,VALID,339,VALID,0.297266,
2011-10-31, 03:14:04,VALID,999.921,VALID,0,VALID,93.0189,VALID,0,VALID,23.9761,VALID,339,VALID,0.466016,
2011-10-31, 03:15:04,VALID,999.92,VALID,0,VALID,93.0723,VALID,0,VALID,23.9353,VALID,340,VALID,0.451953,
2011-10-31, 03:16:04,VALID,999.92,VALID,0,VALID,93.1791,VALID,0,VALID,23.8964,VALID,340,VALID,0.361328,
2011-10-31, 03:17:04,VALID,999.941,VALID,0,VALID,93.2859,VALID,0,VALID,23.8964,VALID,340,VALID,0.394141,
2011-10-31, 03:18:04,VALID,999.942,VALID,0,VALID,93.3165,VALID,0,VALID,23.8769,VALID,340,VALID,0.3,
2011-10-31, 03:19:04,VALID,999.986,VALID,0,VALID,93.4462,VALID,0,VALID,23.8575,VALID,340,VALID,0.350391,
2011-10-31, 03:20:04,VALID,999.999,VALID,0,VALID,93.5835,VALID,0,VALID,23.8787,VALID,340,VALID,0.0324219,
2011-10-31, 03:21:04,VALID,1000,VALID,0,VALID,93.7055,VALID,0,VALID,23.8575,VALID,340,VALID,0.0804688,
2011-10-31, 03:22:04,VALID,999.992,VALID,0,VALID,93.6674,VALID,0,VALID,23.8362,VALID,340,VALID,0.252344,
2011-10-31, 03:23:04,VALID,1000.01,VALID,0,VALID,93.675,VALID,0,VALID,23.8575,VALID,340,VALID,0.220703,
2011-10-31, 03:24:04,VALID,999.982,VALID,0,VALID,93.6979,VALID,0,VALID,23.8575,VALID,340,VALID,0.1625,
2011-10-31, 03:25:04,VALID,999.991,VALID,0,VALID,93.7895,VALID,0,VALID,23.8575,VALID,340,VALID,0.272656,
2011-10-31, 03:26:04,VALID,1000.01,VALID,0,VALID,93.7513,VALID,0,VALID,23.8362,VALID,340,VALID,0.365234,
2011-10-31, 03:27:04,VALID,1000.02,VALID,0,VALID,93.7513,VALID,0,VALID,23.8593,VALID,340,VALID,0.202344,
2011-10-31, 03:28:04,VALID,1000.03,VALID,0,VALID,93.7742,VALID,0,VALID,23.7973,VALID,340,VALID,0.213672,
2011-10-31, 03:29:04,VALID,1000.03,VALID,0,VALID,93.8047,VALID,0,VALID,23.7991,VALID,340,VALID,0.368359,
2011-10-31, 03:30:04,VALID,1000.05,VALID,0,VALID,93.8123,VALID,0,VALID,23.7796,VALID,340,VALID,0.307422,
2011-10-31, 03:31:04,VALID,1000.06,VALID,0,VALID,93.8734,VALID,0,VALID,23.7796,VALID,340,VALID,0.208984,
2011-10-31, 03:32:04,VALID,1000.05,VALID,0,VALID,94.0488,VALID,0,VALID,23.7389,VALID,340,VALID,0.139453,
2011-10-31, 03:33:04,VALID,1000.06,VALID,0,VALID,94.0107,VALID,0,VALID,23.7814,VALID,340,VALID,0.290234,
2011-10-31, 03:34:04,VALID,1000.05,VALID,0,VALID,94.1022,VALID,0,VALID,23.7796,VALID,340,VALID,0.158984,
2011-10-31, 03:35:04,VALID,1000.05,VALID,0,VALID,94.0794,VALID,0,VALID,23.7796,VALID,340,VALID,0.283984,
2011-10-31, 03:36:04,VALID,1000.02,VALID,0,VALID,94.0641,VALID,0,VALID,23.7371,VALID,340,VALID,0.096875,
2011-10-31, 03:37:04,VALID,1000,VALID,0,VALID,94.0641,VALID,0,VALID,23.7583,VALID,340,VALID,0.375,
2011-10-31, 03:38:04,VALID,1000,VALID,0,VALID,94.0946,VALID,0,VALID,23.7389,VALID,340,VALID,0.262109,
2011-10-31, 03:39:04,VALID,999.992,VALID,0,VALID,94.148,VALID,0,VALID,23.7583,VALID,340,VALID,0.369141,
2011-10-31, 03:40:04,VALID,999.974,VALID,0,VALID,94.1556,VALID,0,VALID,23.7796,VALID,340,VALID,0.396094,
2011-10-31, 03:41:04,VALID,999.939,VALID,0,VALID,94.2014,VALID,0,VALID,23.7601,VALID,340,VALID,0.345313,